Bangor, ME

11:36 AM EDT on September 30, 2016 (GMT -0400)
Bangor International

Weather History for KBGR - September, 2013

Change the Weather History Date:

Wednesday, September 18, 2013

  Actual Average Record
Temperature  
Mean Temperature 56 °F 58 °F  
Max Temperature 71 °F 69 °F 87 °F (1992)
Min Temperature 40 °F 47 °F 29 °F (1941)
Degree Days  
Heating Degree Days 9 7  
Month to date heating degree days 102 90  
Since 1 July heating degree days 134 153  
Cooling Degree Days 0 0  
Month to date cooling degree days 33 21  
Year to date cooling degree days 355 315  
Growing Degree Days 6 (Base 50)    
Moisture  
Dew Point 43 °F    
Average Humidity 65    
Maximum Humidity 96    
Minimum Humidity 33    
Precipitation  
Precipitation 0.00 in 0.13 in 3.61 in (1934)
Month to date precipitation 6.70 2.13  
Year to date precipitation 31.88 28.38  
Snow  
Snow 0.00 in 0.00 in 0.00 in (2002)
Month to date snowfall 0.0 0.0  
Since 1 July snowfall 0.0 0.0  
Since 1 September snowfall 0.0 0.0  
Snow Depth 0.00 in    
Sea Level Pressure  
Sea Level Pressure 30.17 in    
Wind  
Wind Speed 2 mph (WSW)    
Max Wind Speed 13 mph    
Max Gust Speed 18 mph    
Visibility 10 miles    
Events      
T = Trace of Precipitation, MM = Missing Value Source: NWS Daily Summary

Daily Weather History Graph

Daily Weather History Graph

Search for Another Location

Airport or City:

Trip Planner

Search our weather history database for the weather conditions in past years. The results will help you decide how hot, cold, wet, or windy it might be!

Date:

Astronomy

Sep. 18, 2013 Rise Set
Actual Time 6:17 AM EDT 6:39 PM EDT
Civil Twilight 5:48 AM EDT 7:09 PM EDT
Nautical Twilight 5:13 AM EDT 7:43 PM EDT
Astronomical Twilight 4:38 AM EDT 8:19 PM EDT
Moon 6:00 PM EDT (9/18) 5:15 AM EDT (9/18)
Length of Visible Light 13h 20m
Length of Day
12h 22m
Waxing Gibbous, 99% of the Moon is Illuminated
Sep 18
Waxing Gibbous
Sep 19
Full
Sep 26
Last Quarter
Oct 4
New
Oct 11
First Quarter

Hourly Weather History & Observations

Time (EDT) Temp. Dew Point Humidity Pressure Visibility Wind Dir Wind Speed Gust Speed Precip Events Conditions
12:53 AM 43.0 °F 41.0 °F 93% 30.27 in 10.0 mi Calm Calm - N/A   Clear
1:53 AM 43.0 °F 41.0 °F 93% 30.26 in 10.0 mi Calm Calm - N/A   Partly Cloudy
2:53 AM 44.1 °F 41.0 °F 89% 30.25 in 10.0 mi Calm Calm - N/A   Partly Cloudy
3:53 AM 41.0 °F 39.0 °F 93% 30.25 in 10.0 mi Calm Calm - N/A   Partly Cloudy
4:53 AM 41.0 °F 39.0 °F 93% 30.25 in 10.0 mi Calm Calm - N/A   Partly Cloudy
5:53 AM 41.0 °F 37.9 °F 89% 30.26 in 10.0 mi Calm Calm - N/A   Partly Cloudy
6:53 AM 42.1 °F 39.9 °F 92% 30.26 in 10.0 mi Calm Calm - N/A   Scattered Clouds
7:53 AM 48.0 °F 43.0 °F 83% 30.26 in 10.0 mi Calm Calm - N/A   Partly Cloudy
8:53 AM 53.1 °F 45.0 °F 74% 30.26 in 10.0 mi Calm Calm - N/A   Partly Cloudy
9:53 AM 60.1 °F 44.1 °F 55% 30.24 in 10.0 mi SW 5.8 mph - N/A   Partly Cloudy
10:53 AM 63.0 °F 43.0 °F 48% 30.21 in 10.0 mi SW 5.8 mph - N/A   Partly Cloudy
11:53 AM 66.0 °F 41.0 °F 40% 30.19 in 10.0 mi West 10.4 mph 16.1 mph N/A   Partly Cloudy
12:53 PM 68.0 °F 39.9 °F 36% 30.17 in 10.0 mi WSW 8.1 mph - N/A   Partly Cloudy
1:53 PM 69.1 °F 39.9 °F 35% 30.14 in 10.0 mi West 8.1 mph - N/A   Partly Cloudy
2:53 PM 70.0 °F 41.0 °F 35% 30.11 in 10.0 mi WSW 4.6 mph - N/A   Partly Cloudy
3:53 PM 70.0 °F 41.0 °F 35% 30.10 in 10.0 mi West 8.1 mph - N/A   Clear
4:53 PM 70.0 °F 43.0 °F 38% 30.08 in 10.0 mi WSW 5.8 mph - N/A   Clear
5:53 PM 68.0 °F 46.0 °F 45% 30.07 in 10.0 mi SW 5.8 mph - N/A   Clear
6:53 PM 62.1 °F 48.0 °F 60% 30.07 in 10.0 mi SW 4.6 mph - N/A   Clear
7:53 PM 57.9 °F 46.9 °F 67% 30.08 in 10.0 mi Calm Calm - N/A   Clear
8:53 PM 57.0 °F 46.0 °F 67% 30.07 in 10.0 mi SW 4.6 mph - N/A   Clear
9:53 PM 55.0 °F 46.0 °F 72% 30.08 in 10.0 mi West 3.5 mph - N/A   Clear
10:53 PM 48.0 °F 45.0 °F 89% 30.08 in 10.0 mi Calm Calm - N/A   Clear
11:53 PM 48.9 °F 46.0 °F 90% 30.08 in 10.0 mi Calm Calm - N/A   Clear